Weather History for Denver, CO

Change the Weather History Date:

Wednesday, October 19, 2011

  Actual Average Record
Temperature  
Mean Temperature 44 °F 50 °F  
Max Temperature 60 °F 64 °F 86 °F (2003)
Min Temperature 27 °F 36 °F 18 °F (1916)
Degree Days  
Heating Degree Days 21 15  
Month to date heating degree days 187 228  
Since 1 July heating degree days 282 369  
Cooling Degree Days 0 0  
Month to date cooling degree days 23 1  
Year to date cooling degree days 964 765  
Moisture  
Dew Point 22 °F    
Average Humidity 51    
Maximum Humidity 81    
Minimum Humidity 20    
Precipitation  
Precipitation 0.00 in 0.04 in 0.47 in (1898)
Month to date precipitation 1.10 0.68  
Year to date precipitation 15.37 13.00  
Snow  
Snow 0.00 in - - ()
Month to date snowfall T  
Since 1 July snowfall T  
Since 1 September snowfall T  
Snow Depth 0.00 in    
Sea Level Pressure  
Sea Level Pressure 30.10 in    
Wind  
Wind Speed 8 mph (SSE)    
Max Wind Speed 15 mph    
Max Gust Speed 18 mph    
Visibility 10 miles    
Events      
T = Trace of Precipitation, MM = Missing Value Source: NWS Daily Summary

Daily Weather History Graph

Daily Weather History Graph

Search for Another Location

Airport:

Trip Planner

Search our weather history database for the weather conditions in past years. The results will help you decide how hot, cold, wet, or windy it might be!

Date:

Astronomy

Oct. 19, 2011 Rise Set
Actual Time 7:12 AM MDT 6:13 PM MDT
Civil Twilight 6:45 AM MDT 6:41 PM MDT
Nautical Twilight 6:14 AM MDT 7:12 PM MDT
Astronomical Twilight 5:42 AM MDT 7:43 PM MDT
Moon No Moon Rise 1:45 PM MDT (10/19)
Length of Visible Light 11h 55m
Length of Day
11h 00m
Waning Gibbous, 54% of the Moon is Illuminated
Oct 19
Waning Gibbous
Oct 19
Last Quarter
Oct 26
New
Nov 2
First Quarter
Nov 10
Full

Hourly Weather History & Observations

Time (MDT) Temp. Windchill Dew Point Humidity Pressure Visibility Wind Dir Wind Speed Gust Speed Precip Events Conditions
12:53 AM 39.0 °F - 23.0 °F 53% 30.24 in 10.0 mi Calm Calm - N/A   Clear
1:53 AM 36.0 °F 31.1 °F 23.0 °F 59% 30.24 in 10.0 mi SW 5.8 mph - N/A   Clear
2:53 AM 33.1 °F 26.9 °F 23.0 °F 66% 30.22 in 10.0 mi SW 6.9 mph - N/A   Clear
3:53 AM 34.0 °F 28.8 °F 23.0 °F 64% 30.20 in 10.0 mi WSW 5.8 mph - N/A   Clear
4:53 AM 26.6 °F 18.2 °F 21.2 °F 80% 30.24 in 10.0 mi SSE 8.1 mph - N/A   Clear
5:53 AM 28.9 °F 19.8 °F 21.9 °F 75% 30.22 in 10.0 mi SSE 10.4 mph - N/A   Clear
6:53 AM 30.0 °F 21.7 °F 21.9 °F 72% 30.23 in 10.0 mi SSE 9.2 mph - N/A   Clear
7:53 AM 30.0 °F 25.2 °F 21.9 °F 72% 30.24 in 10.0 mi South 4.6 mph - N/A   Partly Cloudy
8:53 AM 39.0 °F 35.7 °F 25.0 °F 57% 30.22 in 10.0 mi SW 4.6 mph - N/A   Partly Cloudy
9:53 AM 44.6 °F 42.2 °F 24.8 °F 46% 30.21 in 10.0 mi SW 4.6 mph - N/A   Clear
10:53 AM 50.0 °F - 24.1 °F 36% 30.12 in 10.0 mi South 4.6 mph - N/A   Clear
11:53 AM 54.0 °F - 23.0 °F 30% 30.10 in 10.0 mi ENE 3.5 mph - N/A   Clear
12:53 PM 57.0 °F - 21.9 °F 26% 30.04 in 10.0 mi Variable 5.8 mph - N/A   Partly Cloudy
1:53 PM 57.9 °F - 19.9 °F 23% 30.02 in 10.0 mi East 5.8 mph - N/A   Partly Cloudy
2:53 PM 59.0 °F - 19.9 °F 22% 30.01 in 10.0 mi East 4.6 mph - N/A   Partly Cloudy
3:53 PM 60.1 °F - 19.9 °F 21% 29.97 in 10.0 mi ENE 8.1 mph - N/A   Partly Cloudy
4:53 PM 57.9 °F - 19.0 °F 22% 29.98 in 10.0 mi East 8.1 mph - N/A   Clear
5:53 PM 52.0 °F - 21.0 °F 30% 29.99 in 10.0 mi ESE 8.1 mph - N/A   Clear
6:53 PM 45.0 °F 37.9 °F 21.9 °F 40% 30.01 in 10.0 mi East 16.1 mph - N/A   Partly Cloudy
7:53 PM 41.0 °F 35.8 °F 21.9 °F 47% 30.03 in 10.0 mi SE 8.1 mph - N/A   Clear
8:53 PM 39.0 °F 32.8 °F 23.0 °F 53% 29.99 in 10.0 mi SSE 9.2 mph - N/A   Clear
9:53 PM 37.0 °F 30.4 °F 24.1 °F 59% 29.98 in 10.0 mi SSE 9.2 mph - N/A   Clear
10:53 PM 37.9 °F 30.9 °F 24.1 °F 57% 29.94 in 10.0 mi SSE 10.4 mph - N/A   Clear
11:53 PM 39.9 °F 32.9 °F 24.1 °F 53% 29.90 in 10.0 mi SSW 11.5 mph - N/A   Clear